Content
SEND FEEDBACK

Daily
Averages
Monthly
Summary
Sweden

ODESHOG, SWEDEN


Home > Europe > Sweden
Elevation: 315 feet     Latitude: 58 30N     Longitude: 014 30E

WEATHER
 
SELECT A DAY
Number of Records: 59,933;   Date Range: 2/20/97 - 10/20/14
 
SHARE

PRINT THIS DATA

[ ← Previous Day ]
WEATHER ALMANAC - FEBRUARY 13, 2013
[ Next Day → ]
[ °C ]   °F
Weather ElementAverageHighLow
Temperature25.7 °F30.2 °F (11:50 am)23 °F (1:50 am)
Dewpoint25.1 °F28.4 °F (11:50 am)23 °F (1:50 am)
Humidity97.6 %100 % (12:50 am)86 % (1:20 pm)
Barometer30.29 in30.36 in (4:20 pm)30.15 in (12:50 am)
Wind Speed1.8 mph4.6 mph (1:20 am)
Weather ElementAverage
Visibility6.1 mi
Wind DirectionE (89.4 °)

Weather ElementTotal
Precipitation---
Heating Degree Days38.4 (Base 65)
Averaged from 47 records on February 13, 2013
WEATHER CONDITIONS BREAKOUT
WIND DIRECTION BREAKOUT
WEATHER BY HOUR - FEBRUARY 13, 2013
[ °C ]   °F
Local TimeTemperatureDewpointHumidityBarometerVisibilityWind DirectionWind SpeedGust SpeedPrecipitationEventsConditions
12:50 AM24.8 °F24.8 °F100 %30.15 in5.6 miNW (320°)3.5 mphOvercast
1:20 AM24.8 °F24.8 °F100 %30.15 in4.3 miNNW (340°)4.6 mphSnowSnow Grains
1:50 AM23.0 °F23.0 °F100 %30.15 in5.0 miNorth (350°)1.2 mphSnowLight Snow
2:20 AM23.0 °F23.0 °F100 %30.15 in6.2 miNNW (330°)1.2 mphOvercast
2:50 AM23.0 °F23.0 °F100 %30.18 in6.2 miCalmOvercast
3:20 AM23.0 °F23.0 °F100 %30.18 in6.2 miCalmOvercast
3:50 AM24.8 °F24.8 °F100 %30.18 in6.2 miNW (320°)3.5 mphOvercast
4:20 AM23.0 °F23.0 °F100 %30.18 in6.2 miCalmOvercast
4:50 AM23.0 °F23.0 °F100 %30.18 in6.2 miCalmOvercast
5:20 AM23.0 °F23.0 °F100 %30.21 in6.2 miCalmOvercast
5:50 AM23.0 °F23.0 °F100 %30.21 in6.2 miCalmOvercast
6:20 AM23.0 °F23.0 °F100 %30.21 in6.2 miNorth (360°)2.3 mphOvercast
6:50 AM23.0 °F23.0 °F100 %30.21 in6.2 miCalmOvercast
7:20 AM23.0 °F23.0 °F100 %30.24 in6.2 miCalmOvercast
7:50 AM23.0 °F23.0 °F100 %30.24 in6.2 miCalmOvercast
8:20 AM23.0 °F23.0 °F100 %30.24 in6.2 miCalmOvercast
8:50 AM23.0 °F23.0 °F100 %30.27 in6.2 miCalmOvercast
9:20 AM23.0 °F23.0 °F100 %30.27 in6.2 miNE (50°)4.6 mphOvercast
9:50 AM24.8 °F24.8 °F100 %30.30 in6.2 miNorth (10°)3.5 mphOvercast
10:20 AM26.6 °F26.6 °F100 %30.30 in6.2 miCalmOvercast
10:50 AM26.6 °F26.6 °F100 %30.30 in6.2 miVariable2.3 mphOvercast
11:20 AM26.6 °F26.6 °F100 %30.30 in6.2 miCalmOvercast
11:50 AM30.2 °F28.4 °F93 %30.30 in6.2 miCalmOvercast
12:20 PM30.2 °F28.4 °F93 %30.30 in6.2 miCalmMostly Cloudy
12:50 PM28.4 °F26.6 °F93 %30.33 in6.2 miSouth (170°)3.5 mphOvercast
1:20 PM30.2 °F26.6 °F86 %30.33 in6.2 miSSE (160°)3.5 mphMostly Cloudy
1:50 PM30.2 °F26.6 °F86 %30.33 in6.2 miSE (140°)3.5 mphOvercast
2:20 PM28.4 °F26.6 °F93 %30.33 in6.2 miVariable3.5 mphOvercast
2:50 PM28.4 °F26.6 °F93 %30.33 in6.2 miESE (110°)4.6 mphOvercast
3:20 PM28.4 °F24.8 °F86 %30.33 in6.2 miEast (100°)4.6 mphOvercast
3:50 PM28.4 °F26.6 °F93 %30.33 in6.2 miEast (90°)4.6 mphOvercast
4:20 PM28.4 °F26.6 °F93 %30.36 in6.2 miEast (80°)3.5 mphOvercast
4:50 PM26.6 °F24.8 °F93 %30.36 in6.2 miEast (100°)4.6 mphOvercast
5:20 PM26.6 °F24.8 °F93 %30.36 in6.2 miVariable3.5 mphOvercast
5:50 PM26.6 °F24.8 °F93 %30.36 in6.2 miEast (80°)3.5 mphOvercast
6:20 PM26.6 °F26.6 °F100 %30.36 in6.2 miEast (80°)3.5 mphOvercast
6:50 PM26.6 °F26.6 °F100 %30.36 in6.2 miNNE (30°)2.3 mphOvercast
7:20 PM24.8 °F24.8 °F100 %30.36 in6.2 miNE (40°)1.2 mphOvercast
7:50 PM26.6 °F26.6 °F100 %30.36 in6.2 miVariable2.3 mphOvercast
8:20 PM26.6 °F26.6 °F100 %30.36 in6.2 miNW (320°)2.3 mphOvercast
8:50 PM26.6 °F26.6 °F100 %30.36 in6.2 miNW (310°)2.3 mphOvercast
9:20 PM26.6 °F26.6 °F100 %30.36 in6.2 miNW (310°)1.2 mphOvercast
9:50 PM26.6 °F26.6 °F100 %30.36 in6.2 miCalmSnowLight Snow
10:20 PM26.6 °F26.6 °F100 %30.36 in6.2 miCalmSnowLight Snow
10:50 PM24.8 °F24.8 °F100 %30.36 in6.2 miCalmSnowLight Snow
11:20 PM24.8 °F24.8 °F100 %30.36 in5.6 miCalmSnowLight Snow
11:50 PM24.8 °F24.8 °F100 %30.36 in6.2 miCalmSnowLight Snow
Hourly data recorded from ESGR, located miles away from Odeshog, Sweden







STORIES FROM OUR PARTNERS